Tracking 30923 objects as of 1-Jul-2025
HD Live streaming from Space Station
objects crossing your sky now

SL-14 R/B

Track SL-14 R/B now!
10-day predictions


NORAD ID: 16194
Int'l Code: 1985-100B
Perigee: 1,230.7 km
Apogee: 1,254.5 km
Inclination: 82.6 °
Period: 110.2 minutes
Semi major axis: 7613 km
RCS: 4.9928 m2 (large)
Launch date: October 24, 1985
Source: Commonwealth of Independent States (former USSR) (CIS)
Launch site: PLESETSK MISSILE AND SPACE COMPLEX (PKMTR)

Note: This is a ROCKET BODY
Your satellite tracking list
THORAD AGENA D DEB
Track 1 satellite(s)




NASA's NSSDC Master Catalog

Two Line Element Set (TLE):
1 16194U 85100B   25181.62944984  .00000195  00000-0  55231-3 0  9992
2 16194  82.5997 143.5222 0015685 304.1740 229.2661 13.06827092892258
Source of the keplerian elements: AFSPC